.
WxDataArchive / Data Records for 2011-10-18
2011-10-17 October 2011 2011-10-19

Data Records for Tuesday, 18 October 2011

Time	Temp	Chill	HIndex	Humid	Dewpt	 Wind 	HiWind	WindDir	Rain 	Barom 
-----	----	-----	------	-----	-----	------	------	-------	-----	----- 
00:00	51.9	51.9	51.9	46	31.8	1	4	270	0.00	29.840 
00:05	51.7	51.7	51.7	47	32.1	0	3	270	0.00	29.840 
00:10	51.6	51.6	51.6	47	32.0	0	2	270	0.00	29.840 
00:15	51.6	51.6	51.6	48	32.6	1	3	270	0.00	29.838 
00:20	51.4	51.4	51.4	48	32.4	0	2	270	0.00	29.838 
00:25	51.3	51.3	51.3	48	32.3	1	4	292	0.00	29.838 
00:30	51.3	51.3	51.3	48	32.3	0	2	292	0.00	29.839 
00:35	51.3	51.3	51.3	49	32.8	1	4	292	0.00	29.839 
00:40	51.1	51.1	51.1	48	32.1	1	4	292	0.00	29.839 
00:45	51.1	51.1	51.1	48	32.1	1	4	292	0.00	29.837 
00:50	51.1	51.1	51.1	50	33.1	0	3	270	0.00	29.837 
00:55	51.1	51.1	51.1	49	32.6	2	5	270	0.00	29.837 
01:00	51.0	51.0	51.0	50	33.0	0	3	270	0.00	29.840 
01:05	51.0	51.0	51.0	50	33.0	1	3	270	0.00	29.840 
01:10	51.0	51.0	51.0	50	33.0	0	2	270	0.00	29.840 
01:15	50.8	50.8	50.8	50	32.8	0	2	270	0.00	29.831 
01:20	50.7	50.7	50.7	50	32.7	1	3	270	0.00	29.831 
01:25	50.7	50.7	50.7	51	33.2	0	2	270	0.00	29.831 
01:30	50.5	50.5	50.5	51	33.1	1	3	270	0.00	29.830 
01:35	50.5	50.5	50.5	51	33.1	0	2	270	0.00	29.830 
01:40	50.4	50.4	50.4	52	33.4	0	2	270	0.00	29.830 
01:45	50.4	50.4	50.4	52	33.4	1	3	270	0.00	29.829 
01:50	50.2	50.2	50.2	52	33.3	0	2	270	0.00	29.829 
01:55	50.2	50.2	50.2	52	33.3	0	3	270	0.00	29.829 
02:00	50.1	50.1	50.1	52	33.2	1	3	270	0.00	29.826 
02:05	50.1	50.1	50.1	52	33.2	1	3	270	0.00	29.826 
02:10	49.9	49.9	49.9	53	33.5	0	3	292	0.00	29.826 
02:15	49.8	49.8	49.8	53	33.4	0	1	292	0.00	29.820 
02:20	49.6	49.6	49.6	53	33.2	0	2	292	0.00	29.820 
02:25	49.5	49.5	49.5	54	33.6	0	1	292	0.00	29.820 
02:30	49.4	49.4	49.4	54	33.5	0	1	292	0.00	29.818 
02:35	49.4	49.4	49.4	54	33.5	0	1	292	0.00	29.818 
02:40	49.4	49.4	49.4	54	33.5	0	1	292	0.00	29.818 
02:45	49.4	49.4	49.4	54	33.5	0	1	292	0.00	29.814 
02:50	49.2	49.2	49.2	55	33.7	0	1	292	0.00	29.814 
02:55	49.2	49.2	49.2	55	33.7	0	1	292	0.00	29.814 
03:00	49.2	49.2	49.2	55	33.7	0	2	292	0.00	29.812 
03:05	49.2	49.2	49.2	55	33.7	0	1	292	0.00	29.812 
03:10	49.2	49.2	49.2	55	33.7	0	1	292	0.00	29.812 
03:15	49.2	49.2	49.2	55	33.7	0	2	292	0.00	29.810 
03:20	49.2	49.2	49.2	55	33.7	0	3	292	0.00	29.810 
03:25	49.2	49.2	49.2	55	33.7	0	3	292	0.00	29.810 
03:30	49.1	49.1	49.1	55	33.6	0	1	292	0.00	29.809 
03:35	49.1	49.1	49.1	56	34.1	0	1	292	0.00	29.809 
03:40	49.1	49.1	49.1	56	34.1	0	1	292	0.00	29.809 
03:45	49.1	49.1	49.1	56	34.1	0	2	292	0.00	29.808 
03:50	48.9	48.9	48.9	56	33.9	0	1	292	0.00	29.808 
03:55	48.9	48.9	48.9	56	33.9	0	1	292	0.00	29.808 
04:00	48.8	48.8	48.8	56	33.8	1	3	292	0.00	29.808 
04:05	48.8	48.8	48.8	56	33.8	0	2	292	0.00	29.808 
04:10	48.6	48.6	48.6	57	34.1	0	2	292	0.00	29.808 
04:15	48.5	48.5	48.5	57	34.0	0	2	292	0.00	29.808 
04:20	48.3	48.3	48.3	58	34.2	0	2	292	0.00	29.808 
04:25	48.3	48.3	48.3	58	34.2	0	2	292	0.00	29.808 
04:30	48.2	48.2	48.2	58	34.1	0	3	292	0.00	29.800 
04:35	48.0	48.0	48.0	58	33.9	0	1	292	0.00	29.800 
04:40	48.0	48.0	48.0	58	33.9	0	1	292	0.00	29.800 
04:45	47.9	47.9	47.9	59	34.3	0	1	292	0.00	29.798 
04:50	47.7	47.7	47.7	59	34.1	0	1	292	0.00	29.798 
04:55	47.6	47.6	47.6	59	34.0	0	2	292	0.00	29.798 
05:00	47.4	47.4	47.4	59	33.8	0	2	292	0.00	29.793 
05:05	47.3	47.3	47.3	60	34.1	0	1	292	0.00	29.793 
05:10	47.3	47.3	47.3	61	34.5	0	1	292	0.00	29.793 
05:15	47.1	47.1	47.1	61	34.4	0	1	292	0.00	29.801 
05:20	47.1	47.1	47.1	61	34.4	0	1	292	0.00	29.801 
05:25	47.0	47.0	47.0	61	34.3	0	1	292	0.00	29.801 
05:30	47.0	47.0	47.0	61	34.3	0	1	292	0.00	29.800 
05:35	47.0	47.0	47.0	62	34.7	0	0	---	0.00	29.800 
05:40	47.0	47.0	47.0	62	34.7	0	1	292	0.00	29.800 
05:45	46.8	46.8	46.8	62	34.5	0	1	292	0.00	29.800 
05:50	46.8	46.8	46.8	62	34.5	0	2	292	0.00	29.800 
05:55	46.8	46.8	46.8	62	34.5	0	1	292	0.00	29.800 
06:00	46.7	46.7	46.7	62	34.4	0	1	292	0.00	29.798 
06:05	46.7	46.7	46.7	62	34.4	0	1	292	0.00	29.798 
06:10	46.5	46.5	46.5	62	34.2	0	1	292	0.00	29.798 
06:15	46.5	46.5	46.5	62	34.2	0	1	292	0.00	29.805 
06:20	46.4	46.4	46.4	63	34.5	0	1	292	0.00	29.805 
06:25	46.2	46.2	46.2	63	34.3	0	1	292	0.00	29.805 
06:30	46.2	46.2	46.2	63	34.3	0	0	---	0.00	29.808 
06:35	46.1	46.1	46.1	63	34.2	0	0	---	0.00	29.808 
06:40	46.0	46.0	46.0	64	34.5	0	1	292	0.00	29.808 
06:45	46.0	46.0	46.0	64	34.5	0	0	---	0.00	29.816 
06:50	46.0	46.0	46.0	64	34.5	0	1	292	0.00	29.816 
06:55	46.0	46.0	46.0	64	34.5	0	1	292	0.00	29.816 
07:00	46.0	46.0	46.0	64	34.5	0	1	292	0.00	29.815 
07:05	46.1	46.1	46.1	64	34.6	0	1	292	0.00	29.815 
07:10	46.1	46.1	46.1	64	34.6	0	1	292	0.00	29.815 
07:15	46.1	46.1	46.1	64	34.6	0	2	292	0.00	29.817 
07:20	46.1	46.1	46.1	65	35.0	0	1	292	0.00	29.817 
07:25	46.1	46.1	46.1	65	35.0	0	1	292	0.00	29.817 
07:30	46.0	46.0	46.0	65	34.9	0	2	292	0.00	29.816 
07:35	46.0	46.0	46.0	65	34.9	0	1	292	0.00	29.816 
07:40	46.0	46.0	46.0	65	34.9	0	1	292	0.00	29.816 
07:45	46.0	46.0	46.0	65	34.9	0	1	292	0.00	29.814 
07:50	46.0	46.0	46.0	66	35.3	0	1	292	0.00	29.814 
07:55	45.8	45.8	45.8	66	35.1	0	2	292	0.00	29.814 
08:00	45.8	45.8	45.8	67	35.5	0	2	292	0.00	29.817 
08:05	45.8	45.8	45.8	67	35.5	0	3	292	0.00	29.817 
08:10	45.8	45.8	45.8	68	35.8	0	1	292	0.00	29.817 
08:15	45.8	45.8	45.8	69	36.2	0	1	292	0.00	29.817 
08:20	45.8	45.8	45.8	69	36.2	0	1	292	0.00	29.817 
08:25	45.8	45.8	45.8	70	36.6	0	1	292	0.00	29.817 
08:30	45.8	45.8	45.8	70	36.6	0	1	292	0.00	29.817 
08:35	45.8	45.8	45.8	71	36.9	0	1	292	0.00	29.817 
08:40	45.8	45.8	45.8	71	36.9	0	1	292	0.00	29.817 
08:45	45.8	45.8	45.8	72	37.3	0	1	292	0.00	29.816 
08:50	46.0	46.0	46.0	72	37.5	0	1	292	0.00	29.816 
08:55	46.0	46.0	46.0	72	37.5	0	1	292	0.00	29.816 
09:00	46.0	46.0	46.0	72	37.5	0	2	292	0.00	29.817 
09:05	46.0	46.0	46.0	72	37.5	0	1	292	0.00	29.817 
09:10	46.0	46.0	46.0	73	37.8	0	0	---	0.00	29.817 
09:15	46.1	46.1	46.1	73	37.9	0	0	---	0.00	29.817 
09:20	46.1	46.1	46.1	73	37.9	0	0	---	0.00	29.817 
09:25	46.2	46.2	46.2	73	38.0	0	1	292	0.00	29.817 
09:30	46.2	46.2	46.2	72	37.7	0	0	---	0.00	29.817 
09:35	46.4	46.4	46.4	72	37.9	0	1	292	0.00	29.817 
09:40	46.4	46.4	46.4	72	37.9	0	1	292	0.00	29.817 
09:45	46.4	46.4	46.4	73	38.2	0	1	292	0.00	29.820 
09:50	46.5	46.5	46.5	72	38.0	0	1	292	0.00	29.820 
09:55	46.5	46.5	46.5	72	38.0	0	0	---	0.00	29.820 
10:00	46.5	46.5	46.5	73	38.3	0	1	292	0.00	29.825 
10:05	46.7	46.7	46.7	73	38.5	0	0	---	0.00	29.825 
10:10	46.7	46.7	46.7	73	38.5	0	0	---	0.00	29.825 
10:15	46.7	46.7	46.7	73	38.5	0	1	292	0.00	29.825 
10:20	46.8	46.8	46.8	73	38.6	0	0	---	0.00	29.825 
10:25	47.0	47.0	47.0	73	38.8	0	1	292	0.00	29.825 
10:30	47.1	47.1	47.1	73	38.9	0	0	---	0.00	29.826 
10:35	47.3	47.3	47.3	72	38.7	0	1	292	0.00	29.826 
10:40	47.6	47.6	47.6	72	39.0	0	1	292	0.00	29.826 
10:45	47.7	47.7	47.7	72	39.1	0	1	292	0.00	29.822 
10:50	47.9	47.9	47.9	72	39.3	0	0	---	0.00	29.822 
10:55	48.0	48.0	48.0	72	39.4	0	0	---	0.00	29.822 
11:00	48.0	48.0	48.0	72	39.4	0	1	292	0.00	29.820 
11:05	48.2	48.2	48.2	72	39.6	0	1	292	0.00	29.820 
11:10	48.0	48.0	48.0	71	39.1	0	1	292	0.00	29.820 
11:15	48.0	48.0	48.0	71	39.1	0	1	292	0.00	29.826 
11:20	48.2	48.2	48.2	72	39.6	0	1	292	0.00	29.826 
11:25	48.2	48.2	48.2	73	40.0	0	0	---	0.00	29.826 
11:30	48.3	48.3	48.3	73	40.1	0	1	292	0.00	29.828 
11:35	48.5	48.5	48.5	72	39.9	0	3	292	0.00	29.828 
11:40	48.3	48.3	48.3	72	39.7	0	3	292	0.00	29.828 
11:45	48.5	48.5	48.5	73	40.2	0	1	292	0.00	29.827 
11:50	48.5	48.5	48.5	73	40.2	0	1	292	0.00	29.827 
11:55	48.5	48.5	48.5	73	40.2	0	1	292	0.00	29.827 
12:00	48.5	48.5	48.5	73	40.2	0	1	292	0.00	29.827 
12:05	48.6	48.6	48.6	73	40.3	0	2	292	0.00	29.827 
12:10	48.6	48.6	48.6	72	40.0	0	1	292	0.00	29.827 
12:15	48.6	48.6	48.6	73	40.3	0	1	292	0.00	29.817 
12:20	48.6	48.6	48.6	72	40.0	0	1	292	0.00	29.817 
12:25	48.6	48.6	48.6	72	40.0	0	0	---	0.00	29.817 
12:30	48.8	48.8	48.8	73	40.5	0	0	---	0.00	29.815 
12:35	48.8	48.8	48.8	72	40.2	0	0	---	0.00	29.815 
12:40	48.9	48.9	48.9	72	40.3	0	0	---	0.00	29.815 
12:45	48.9	48.9	48.9	71	39.9	0	1	292	0.00	29.818 
12:50	48.9	48.9	48.9	70	39.6	0	0	---	0.00	29.818 
12:55	48.9	48.9	48.9	71	39.9	0	1	292	0.00	29.818 
13:00	48.9	48.9	48.9	72	40.3	0	1	292	0.00	29.822 
13:05	48.9	48.9	48.9	71	39.9	0	1	292	0.00	29.822 
13:10	48.8	48.8	48.8	71	39.8	0	1	292	0.00	29.822 
13:15	48.8	48.8	48.8	73	40.5	0	1	292	0.00	29.828 
13:20	48.8	48.8	48.8	73	40.5	0	1	292	0.00	29.828 
13:25	48.6	48.6	48.6	73	40.3	0	1	292	0.00	29.828 
13:30	48.6	48.6	48.6	74	40.7	0	1	292	0.00	29.816 
13:35	48.6	48.6	48.6	75	41.0	0	0	---	0.00	29.816 
13:40	48.5	48.5	48.5	75	40.9	0	1	292	0.00	29.816 
13:45	48.2	48.2	48.2	75	40.7	0	0	---	0.00	29.803 
13:50	48.0	48.0	48.0	76	40.8	0	1	292	0.00	29.803 
13:55	48.0	48.0	48.0	77	41.1	0	0	---	0.00	29.803 
14:00	48.0	48.0	48.0	78	41.5	0	0	---	0.01	29.801 
14:05	47.9	47.9	47.9	79	41.7	0	0	---	0.00	29.801 
14:10	47.9	47.9	47.9	80	42.0	0	0	---	0.00	29.801 
14:15	47.9	47.9	47.9	81	42.4	0	0	---	0.01	29.794 
14:20	47.7	47.7	47.7	82	42.5	0	0	---	0.00	29.794 
14:25	47.6	47.6	47.6	83	42.7	0	0	---	0.01	29.794 
14:30	47.4	47.4	47.4	84	42.8	0	0	---	0.00	29.820 
14:35	47.1	47.1	47.1	85	42.8	0	0	---	0.00	29.820 
14:40	47.1	47.1	47.1	86	43.1	0	0	---	0.01	29.820 
14:45	47.0	47.0	47.0	86	43.0	0	0	---	0.00	29.818 
14:50	47.0	47.0	47.0	87	43.3	0	0	---	0.00	29.818 
14:55	47.0	47.0	47.0	87	43.3	0	1	292	0.01	29.818 
15:00	46.8	46.8	46.8	88	43.4	0	0	---	0.00	29.815 
15:05	46.8	46.8	46.8	88	43.4	0	0	---	0.00	29.815 
15:10	46.7	46.7	46.7	88	43.3	0	0	---	0.00	29.815 
15:15	46.8	46.8	46.8	89	43.7	0	0	---	0.00	29.796 
15:20	46.7	46.7	46.7	89	43.6	0	0	---	0.00	29.796 
15:25	46.7	46.7	46.7	89	43.6	0	1	292	0.00	29.796 
15:30	46.8	46.8	46.8	89	43.7	0	1	292	0.00	29.771 
15:35	47.0	47.0	47.0	90	44.2	0	0	---	0.00	29.771 
15:40	46.8	46.8	46.8	89	43.7	0	0	---	0.00	29.771 
15:45	46.7	46.7	46.7	90	43.9	0	0	---	0.00	29.787 
15:50	46.7	46.7	46.7	90	43.9	0	1	292	0.00	29.787 
15:55	46.7	46.7	46.7	90	43.9	0	1	292	0.00	29.787 
16:00	46.7	46.7	46.7	90	43.9	0	0	---	0.01	29.768 
16:05	46.7	46.7	46.7	90	43.9	0	0	---	0.00	29.768 
16:10	46.7	46.7	46.7	91	44.2	0	0	---	0.00	29.768 
16:15	46.5	46.5	46.5	90	43.7	0	0	---	0.00	29.776 
16:20	46.5	46.5	46.5	90	43.7	0	0	---	0.00	29.776 
16:25	46.5	46.5	46.5	90	43.7	0	0	---	0.00	29.776 
16:30	46.4	46.4	46.4	90	43.6	0	0	---	0.00	29.787 
16:35	46.2	46.2	46.2	90	43.4	0	0	---	0.01	29.787 
16:40	46.2	46.2	46.2	90	43.4	0	0	---	0.00	29.787 
16:45	46.4	46.4	46.4	91	43.9	0	0	---	0.00	29.792 
16:50	46.5	46.5	46.5	91	44.0	0	0	---	0.00	29.792 
16:55	46.5	46.5	46.5	91	44.0	0	0	---	0.00	29.792 
17:00	46.5	46.5	46.5	91	44.0	0	0	---	0.00	29.775 
17:05	46.5	46.5	46.5	91	44.0	0	0	---	0.00	29.775 
17:10	46.7	46.7	46.7	92	44.5	0	1	292	0.00	29.775 
17:15	46.5	46.5	46.5	92	44.3	0	0	---	0.00	29.749 
17:20	46.5	46.5	46.5	92	44.3	0	1	292	0.00	29.749 
17:25	46.5	46.5	46.5	92	44.3	0	1	292	0.00	29.749 
17:30	46.5	46.5	46.5	92	44.3	0	1	292	0.00	29.776 
17:35	46.5	46.5	46.5	92	44.3	0	1	292	0.00	29.776 
17:40	46.5	46.5	46.5	92	44.3	0	1	292	0.00	29.776 
17:45	46.5	46.5	46.5	92	44.3	0	1	292	0.00	29.789 
17:50	46.5	46.5	46.5	92	44.3	0	1	292	0.01	29.789 
17:55	46.5	46.5	46.5	92	44.3	0	1	292	0.01	29.789 
18:00	46.5	46.5	46.5	93	44.6	0	1	292	0.00	29.832 
18:05	46.5	46.5	46.5	93	44.6	0	3	225	0.00	29.832 
18:10	46.5	46.5	46.5	93	44.6	0	2	225	0.00	29.832 
18:15	46.4	46.4	46.4	93	44.5	0	1	225	0.01	29.827 
18:20	46.2	46.2	46.2	93	44.3	0	1	225	0.00	29.827 
18:25	46.1	46.1	46.1	93	44.2	0	1	225	0.01	29.827 
18:30	46.1	46.1	46.1	93	44.2	0	1	225	0.00	29.821 
18:35	46.1	46.1	46.1	93	44.2	0	1	225	0.00	29.821 
18:40	46.0	46.0	46.0	93	44.1	0	1	225	0.00	29.821 
18:45	45.8	45.8	45.8	93	43.9	0	0	---	0.00	29.801 
18:50	45.8	45.8	45.8	93	43.9	0	1	225	0.00	29.801 
18:55	45.7	45.7	45.7	93	43.8	0	1	225	0.00	29.801 
19:00	45.7	45.7	45.7	94	44.1	0	1	225	0.00	29.821 
19:05	45.7	45.7	45.7	94	44.1	0	1	225	0.00	29.821 
19:10	45.7	45.7	45.7	94	44.1	0	0	---	0.00	29.821 
19:15	45.7	45.7	45.7	94	44.1	0	1	225	0.00	29.806 
19:20	45.5	45.5	45.5	94	43.9	0	1	225	0.00	29.806 
19:25	45.5	45.5	45.5	94	43.9	0	1	225	0.00	29.806 
19:30	45.4	45.4	45.4	94	43.8	0	1	225	0.00	29.810 
19:35	45.2	45.2	45.2	94	43.6	0	1	225	0.01	29.810 
19:40	45.1	45.1	45.1	94	43.5	0	0	---	0.00	29.810 
19:45	45.1	45.1	45.1	94	43.5	0	0	---	0.00	29.816 
19:50	44.9	44.9	44.9	94	43.3	0	1	225	0.00	29.816 
19:55	44.9	44.9	44.9	94	43.3	0	1	225	0.00	29.816 
20:00	44.9	44.9	44.9	94	43.3	0	1	225	0.00	29.808 
20:05	44.9	44.9	44.9	94	43.3	0	1	225	0.00	29.808 
20:10	45.1	45.1	45.1	94	43.5	0	1	225	0.00	29.808 
20:15	45.1	45.1	45.1	94	43.5	0	1	338	0.00	29.799 
20:20	45.2	45.2	45.2	94	43.6	0	1	338	0.00	29.799 
20:25	45.2	45.2	45.2	94	43.6	0	1	338	0.00	29.799 
20:30	45.2	45.2	45.2	94	43.6	0	1	338	0.00	29.808 
20:35	45.2	45.2	45.2	94	43.6	0	2	338	0.00	29.808 
20:40	45.1	45.1	45.1	94	43.5	0	1	338	0.00	29.808 
20:45	45.1	45.1	45.1	94	43.5	0	1	338	0.00	29.797 
20:50	44.9	44.9	44.9	94	43.3	0	0	---	0.00	29.797 
20:55	44.9	44.9	44.9	94	43.3	0	1	338	0.00	29.797 
21:00	44.9	44.9	44.9	94	43.3	0	1	338	0.01	29.804 
21:05	44.9	44.9	44.9	94	43.3	0	1	338	0.00	29.804 
21:10	44.9	44.9	44.9	94	43.3	0	2	338	0.00	29.804 
21:15	44.8	44.8	44.8	94	43.2	0	1	338	0.00	29.807 
21:20	44.8	44.8	44.8	94	43.2	0	1	338	0.00	29.807 
21:25	44.8	44.8	44.8	94	43.2	0	1	338	0.00	29.807 
21:30	44.6	44.6	44.6	94	43.0	0	1	338	0.00	29.807 
21:35	44.6	44.6	44.6	94	43.0	0	1	338	0.00	29.807 
21:40	44.6	44.6	44.6	94	43.0	0	1	338	0.00	29.807 
21:45	44.6	44.6	44.6	94	43.0	0	1	338	0.00	29.805 
21:50	44.6	44.6	44.6	94	43.0	0	1	338	0.00	29.805 
21:55	44.6	44.6	44.6	94	43.0	0	2	0	0.00	29.805 
22:00	44.6	44.6	44.6	94	43.0	0	0	---	0.00	29.796 
22:05	44.5	44.5	44.5	94	42.9	0	1	0	0.00	29.796 
22:10	44.5	44.5	44.5	94	42.9	0	1	0	0.00	29.796 
22:15	44.5	44.5	44.5	94	42.9	0	1	0	0.00	29.791 
22:20	44.3	44.3	44.3	94	42.7	0	1	0	0.00	29.791 
22:25	44.3	44.3	44.3	94	42.7	0	1	0	0.00	29.791 
22:30	44.3	44.3	44.3	94	42.7	0	1	0	0.00	29.778 
22:35	44.3	44.3	44.3	93	42.4	0	1	0	0.00	29.778 
22:40	44.3	44.3	44.3	93	42.4	0	3	112	0.00	29.778 
22:45	44.3	44.3	44.3	93	42.4	0	1	112	0.00	29.773 
22:50	44.3	44.3	44.3	93	42.4	0	1	112	0.00	29.773 
22:55	44.3	44.3	44.3	93	42.4	0	1	112	0.00	29.773 
23:00	44.5	44.5	44.5	93	42.6	0	2	112	0.00	29.775 
23:05	44.5	44.5	44.5	93	42.6	0	1	112	0.00	29.775 
23:10	44.5	44.5	44.5	92	42.3	0	1	112	0.00	29.775 
23:15	44.5	44.5	44.5	92	42.3	0	1	112	0.00	29.765 
23:20	44.5	44.5	44.5	92	42.3	0	1	112	0.00	29.765 
23:25	44.5	44.5	44.5	92	42.3	0	1	112	0.00	29.765 
23:30	44.5	44.5	44.5	92	42.3	0	2	112	0.00	29.767 
23:35	44.6	44.6	44.6	92	42.4	0	3	112	0.00	29.767 
23:40	44.6	44.6	44.6	92	42.4	0	4	112	0.00	29.767 
23:45	44.6	44.6	44.6	92	42.4	0	4	135	0.00	29.760 
23:50	44.6	44.6	44.6	92	42.4	1	4	135	0.00	29.760 
23:55	44.5	44.5	44.5	92	42.3	0	3	112	0.00	29.760 

CoCoRaHS
IN-AL-39
A2 Web Hosting
Creative Commons License
GoDaddy
search engine by freefind advanced

loaded 2018-11-17 18:13:11 • last modified 2010-11-18 10:43:29
Privacy PolicyDisclaimer
• wx.awcolley.com is powered by PmWiki v.2002016 •
• all content (unless otherwise noted) © 2018 A W Colley